Location: Battery Park City
(40.7115°N, 74.0163°W)
Time: 12:51:09
(UTC+00:00)

Cosmos 1943 Rocket - Pass Details

Date: 08 December 2019
Orbit: 812 x 844 km, 71.0° (Epoch: 19 January)

Event Time Altitude Azimuth Distance (km) Brightness Sun altitude
Rises 23:39:54 0° 345° (NNW) 3,404 5.4 -24.2°
Reaches altitude 10° 23:42:41 10° 356° (N) 2,462 4.6 -24.7°
Enters shadow 23:44:01 16° 5° (N) 2,061 4.1 -24.9°
